AB0DE-15 Weather Reports


time (UTC)temp
F
wind
direction
speed
knots
gust
knots
rain 1hr
in
rain 24hr
in
rain mn
in
humidity
%
barometer
mb
20260502224525 63 204 3.5 9.6 0.00 0.00 0.00 33 1013.0
20260502224007 64 217 4.3 8.7 0.00 0.00 0.00 32 1013.0
20260502223511 64 217 4.3 8.7 0.00 0.00 0.00 32 1013.1
20260502223026 64 250 3.5 11.3 0.00 0.00 0.00 32 1013.1
20260502222507 64 169 2.6 11.3 0.00 0.00 0.00 33 1013.1
20260502221507 64 211 2.6 8.7 0.00 0.00 0.00 33 1013.0
20260502221003 64 223 4.3 8.7 0.00 0.00 0.00 32 1013.1
20260502220015 63 238 4.3 8.7 0.00 0.00 0.00 33 1013.3
20260502215004 63 301 4.3 11.3 0.00 0.00 0.00 32 1013.4
20260502214007 63 332 4.3 8.7 0.00 0.00 0.00 32 1013.5
20260502213507 63 238 4.3 8.7 0.00 0.00 0.00 31 1013.6
20260502213023 63 311 1.7 10.4 0.00 0.00 0.00 32 1013.6
20260502212508 63 301 4.3 10.4 0.00 0.00 0.00 31 1013.7
20260502212008 63 242 3.5 11.3 0.00 0.00 0.00 34 1013.7
20260502211528 63 289 2.6 11.3 0.00 0.00 0.00 33 1013.8
20260502211008 63 243 1.7 8.7 0.00 0.00 0.00 34 1013.8
20260502210505 62 200 1.7 7.0 0.00 0.00 0.00 32 1013.9
20260502210010 63 235 3.5 7.0 0.00 0.00 0.00 32 1014.0
20260502205505 63 283 0.0 13.9 0.00 0.00 0.00 33 1014.0
20260502204517 62 235 7.0 13.0 0.00 0.00 0.00 34 1014.3
20260502203508 62 243 1.7 10.4 0.00 0.00 0.00 32 1014.4
20260502202507 61 218 7.0 13.0 0.00 0.00 0.00 33 1014.5
20260502201521 61 224 5.2 7.8 0.00 0.00 0.00 31 1014.8
20260502201014 61 224 2.6 7.0 0.00 0.00 0.00 33 1014.7
20260502200512 61 257 1.7 4.3 0.00 0.00 0.00 32 1014.9
20260502200028 60 262 1.7 9.6 0.00 0.00 0.00 34 1015.1
20260502195511 60 341 3.5 9.6 0.00 0.00 0.00 31 1015.2
20260502195004 60 295 4.3 14.8 0.00 0.00 0.00 33 1015.3
20260502194514 60 303 3.5 14.8 0.00 0.00 0.00 31 1015.4
20260502194003 60 235 7.0 14.8 0.00 0.00 0.00 31 1015.3
20260502193503 60 219 4.3 9.6 0.00 0.00 0.00 32 1015.4
20260502192505 60 278 3.5 8.7 0.00 0.00 0.00 31 1015.7
20260502192012 60 334 3.5 9.6 0.00 0.00 0.00 34 1015.8
20260502191520 60 238 4.3 9.6 0.00 0.00 0.00 32 1015.8
20260502190511 59 248 5.2 13.0 0.00 0.00 0.00 32 1016.0
20260502190028 59 248 7.8 13.0 0.00 0.00 0.00 31 1016.1
20260502185508 58 230 2.6 12.2 0.00 0.00 0.00 38 1016.0
20260502185011 58 316 3.5 12.2 0.00 0.00 0.00 35 1016.2
20260502184527 58 240 3.5 7.8 0.00 0.00 0.00 33 1016.3
20260502184010 58 226 1.7 9.6 0.00 0.00 0.00 36 1016.4
20260502183504 58 258 3.5 9.6 0.00 0.00 0.00 35 1016.5
20260502182506 57 319 3.5 11.3 0.00 0.00 0.00 34 1016.7
20260502182006 57 273 6.1 14.8 0.00 0.00 0.00 35 1016.8
20260502181521 57 277 7.0 14.8 0.00 0.00 0.00 35 1016.9
20260502181007 57 239 5.2 11.3 0.00 0.00 0.00 36 1016.8
20260502180506 57 255 3.5 11.3 0.00 0.00 0.00 36 1016.9
20260502170510 55 256 2.6 11.3 0.00 0.00 0.00 36 1017.8
20260502164010 54 298 2.6 13.0 0.00 0.00 0.00 39 1018.0
20260502163508 54 232 5.2 10.4 0.00 0.00 0.00 36 1018.0
20260502163035 55 294 5.2 9.6 0.00 0.00 0.00 37 1018.0
20260502162508 55 294 1.7 9.6 0.00 0.00 0.00 39 1018.1
20260502162008 54 197 3.5 9.6 0.00 0.00 0.00 37 1018.2
20260502161534 54 310 2.6 7.8 0.00 0.00 0.00 38 1018.1
20260502161012 54 232 4.3 8.7 0.00 0.00 0.00 38 1018.2
20260502160513 54 248 3.5 8.7 0.00 0.00 0.00 38 1018.2
20260502152011 53 347 3.5 7.8 0.00 0.00 0.00 41 1018.4
20260502151511 52 248 3.5 8.7 0.00 0.00 0.00 40 1018.5
20260502151005 52 276 4.3 8.7 0.00 0.00 0.00 40 1018.5
20260502150503 52 127 3.5 7.8 0.00 0.00 0.00 43 1018.5
20260502130508 39 65 0.0 0.9 0.00 0.00 0.00 70 1018.9
20260502123509 35 8 0.0 0.0 0.00 0.00 0.00 78 1019.0
20260502123042 34 11 0.0 0.0 0.00 0.00 0.00 80 1019.0
20260502122508 33 310 0.0 0.0 0.00 0.00 0.00 81 1018.9
20260502122017 32 27 0.0 0.0 0.00 0.00 0.00 82 1019.0
20260502121526 32 27 0.0 0.0 0.00 0.00 0.00 83 1018.9
20260502121007 31 27 0.0 0.0 0.00 0.00 0.00 84 1018.9
20260502120507 31 27 0.0 0.0 0.00 0.00 0.00 86 1018.9
20260502115510 30 27 0.0 0.0 0.00 0.00 0.00 85 1018.9
20260502115011 30 27 0.0 0.0 0.00 0.00 0.00 86 1018.9
20260502114526 29 27 0.0 0.0 0.00 0.00 0.00 86 1018.9
20260502114008 29 27 0.0 0.0 0.00 0.00 0.00 86 1018.9
20260502113509 29 27 0.0 0.0 0.00 0.00 0.00 86 1018.9
20260502113026 29 27 0.0 0.0 0.00 0.00 0.00 86 1018.9
20260502112509 29 27 0.0 0.0 0.00 0.00 0.00 86 1018.8
20260502112003 29 27 0.0 0.0 0.00 0.00 0.00 85 1018.8
20260502111526 29 27 0.0 0.0 0.00 0.00 0.00 85 1018.8
20260502111007 29 27 0.0 0.0 0.00 0.00 0.00 85 1018.8
20260502110505 29 27 0.0 0.0 0.00 0.00 0.00 84 1018.8
20260502110022 29 27 0.0 0.0 0.00 0.00 0.00 85 1018.8
20260502105506 29 27 0.0 0.0 0.00 0.00 0.00 85 1018.8
20260502105006 29 27 0.0 0.0 0.00 0.00 0.00 85 1018.8
20260502104527 29 27 0.0 0.0 0.00 0.00 0.00 85 1018.7
20260502104008 29 27 0.0 0.0 0.00 0.00 0.00 86 1018.7
20260502103510 29 27 0.0 0.0 0.00 0.00 0.00 86 1018.7
20260502103031 29 27 0.0 0.0 0.00 0.00 0.00 85 1018.7
20260502102510 29 27 0.0 0.0 0.00 0.00 0.00 84 1018.7
20260502102026 29 27 0.0 0.0 0.00 0.00 0.00 85 1018.8
20260502101525 29 27 0.0 0.0 0.00 0.00 0.00 84 1018.7
20260502101015 30 27 0.0 0.0 0.00 0.00 0.00 83 1018.7
20260502100510 30 27 0.0 0.0 0.00 0.00 0.00 83 1018.7
20260502091512 30 23 0.0 0.0 0.00 0.00 0.00 85 1018.8
20260502091003 30 23 0.0 0.0 0.00 0.00 0.00 86 1018.8
20260502090502 30 23 0.0 0.0 0.00 0.00 0.00 86 1018.8
20260502071530 31 23 0.0 0.0 0.00 0.00 0.00 83 1018.9
20260502071010 31 23 0.0 0.0 0.00 0.00 0.00 83 1018.8
20260502070504 31 23 0.0 0.0 0.00 0.00 0.00 82 1018.9
20260502070017 31 23 0.0 0.0 0.00 0.00 0.00 82 1018.9
20260502065504 32 23 0.0 0.0 0.00 0.00 0.00 82 1019.0
20260502065007 31 23 0.0 0.0 0.00 0.00 0.00 83 1019.0
20260502064510 31 23 0.0 0.0 0.00 0.00 0.00 83 1019.0
20260502064004 31 23 0.0 0.0 0.00 0.00 0.00 84 1019.0
20260502063504 31 23 0.0 0.0 0.00 0.00 0.00 85 1019.0
20260502062508 31 23 0.0 0.0 0.00 0.00 0.00 84 1019.1
20260502062008 31 23 0.0 0.0 0.00 0.00 0.00 84 1019.1
20260502060509 31 23 0.0 0.0 0.00 0.00 0.00 81 1019.1
20260502055507 31 23 0.0 0.0 0.00 0.00 0.00 80 1019.1
20260502055004 31 23 0.0 0.0 0.00 0.00 0.00 80 1019.1
20260502054515 32 23 0.0 0.0 0.00 0.00 0.00 79 1019.1
20260502054003 32 23 0.0 0.0 0.00 0.00 0.00 78 1019.0
20260502053506 32 23 0.0 0.0 0.00 0.00 0.00 77 1019.0
20260502053016 32 23 0.0 0.0 0.00 0.00 0.00 77 1019.0
20260502052504 32 23 0.0 0.0 0.00 0.00 0.00 77 1019.0
20260502052004 33 23 0.0 0.0 0.00 0.00 0.00 76 1018.9
20260502051523 33 23 0.0 0.0 0.00 0.00 0.00 74 1018.9
20260502051006 33 23 0.0 0.0 0.00 0.00 0.00 74 1018.9
20260502050507 33 23 0.0 0.0 0.00 0.00 0.00 73 1018.9
20260502050032 33 23 0.0 0.0 0.00 0.00 0.00 73 1018.9
20260502045510 33 23 0.0 0.0 0.00 0.00 0.00 72 1018.9
20260502045008 33 23 0.0 0.0 0.00 0.00 0.00 71 1018.9
20260502044523 34 23 0.0 0.0 0.00 0.00 0.00 70 1018.9
20260502044007 34 23 0.0 0.0 0.00 0.00 0.00 70 1018.9
20260502043507 34 23 0.0 0.0 0.00 0.00 0.00 70 1018.9
20260502042504 34 23 0.0 0.0 0.00 0.00 0.00 66 1018.9
20260502042005 35 23 0.0 0.0 0.00 0.00 0.00 66 1018.8
20260502041528 35 23 0.0 0.0 0.00 0.00 0.00 67 1018.8
20260502041004 35 23 0.0 0.0 0.00 0.00 0.00 66 1018.8
20260502040505 35 23 0.0 0.0 0.00 0.00 0.00 66 1018.8
20260502040026 35 23 0.0 0.0 0.00 0.00 0.00 66 1018.8
20260502035506 36 23 0.0 0.0 0.00 0.00 0.00 65 1018.8
20260502035009 36 23 0.0 0.0 0.00 0.00 0.00 64 1018.7
20260502034523 36 23 0.0 0.0 0.00 0.00 0.00 64 1018.7
20260502034008 36 23 0.0 0.0 0.00 0.00 0.00 63 1018.8
20260502033509 36 23 0.0 0.0 0.00 0.00 0.00 61 1018.8
20260502033031 37 23 0.0 0.0 0.00 0.00 0.00 61 1018.8
20260502032507 37 23 0.0 0.0 0.00 0.00 0.00 61 1018.8
20260502032012 38 23 0.0 0.0 0.00 0.00 0.00 59 1018.8
20260502031526 38 23 0.0 0.0 0.00 0.00 0.00 59 1018.9
20260502031005 39 23 0.0 0.0 0.00 0.00 0.00 58 1018.8
20260502030508 39 23 0.0 0.0 0.00 0.00 0.00 58 1018.8
20260502030022 39 23 0.0 0.0 0.00 0.00 0.00 57 1018.7
20260502025505 39 23 0.0 0.0 0.00 0.00 0.00 56 1018.7
20260502025007 40 23 0.0 0.0 0.00 0.00 0.00 56 1018.7
20260502024527 40 23 0.0 0.0 0.00 0.00 0.00 55 1018.7
20260502024009 41 23 0.0 0.0 0.00 0.00 0.00 52 1018.7
20260502023507 41 23 0.0 0.0 0.00 0.00 0.00 52 1018.7
20260502023024 42 23 0.0 0.0 0.00 0.00 0.00 52 1018.7
20260502022508 42 23 0.0 0.0 0.00 0.00 0.00 50 1018.7
20260502022009 43 23 0.0 0.0 0.00 0.00 0.00 48 1018.6
20260502021525 43 23 0.0 0.0 0.00 0.00 0.00 49 1018.6
20260502021007 43 23 0.0 0.0 0.00 0.00 0.00 47 1018.6
20260502020507 44 23 0.0 0.0 0.00 0.00 0.00 46 1018.6
20260502020028 45 23 0.0 0.0 0.00 0.00 0.00 45 1018.5
20260502015505 45 23 0.0 0.9 0.00 0.00 0.00 44 1018.5
20260502015005 46 23 0.0 0.9 0.00 0.00 0.00 44 1018.5
20260502014529 46 23 0.0 0.9 0.00 0.00 0.00 42 1018.4
20260502014005 47 23 0.0 0.9 0.00 0.00 0.00 42 1018.3
20260502013506 47 27 0.0 1.7 0.00 0.00 0.00 40 1018.3
20260502013023 47 16 0.0 2.6 0.00 0.00 0.00 40 1018.3
20260502012513 47 360 0.0 2.6 0.00 0.00 0.00 40 1018.2
20260502012007 48 9 0.0 2.6 0.00 0.00 0.00 39 1018.2
20260502011522 48 8 0.0 0.9 0.00 0.00 0.00 39 1018.2
20260502011010 48 49 0.0 2.6 0.00 0.00 0.00 39 1018.2
20260502010507 49 53 0.0 3.5 0.00 0.00 0.00 38 1018.2
20260502010030 49 18 0.0 3.5 0.00 0.00 0.00 37 1018.1
20260502005508 49 33 0.9 3.5 0.00 0.00 0.00 37 1018.1
20260502005011 50 41 0.9 3.5 0.00 0.00 0.00 36 1018.1
20260502004545 50 34 0.9 5.2 0.00 0.00 0.00 35 1018.0
20260502004008 51 32 0.9 5.2 0.00 0.00 0.00 34 1018.0
20260502003508 52 350 1.7 5.2 0.00 0.00 0.00 33 1018.0
20260502003017 52 30 1.7 7.0 0.00 0.00 0.00 34 1017.9
20260502002510 52 20 2.6 9.6 0.00 0.00 0.00 33 1017.9
20260502002003 52 60 3.5 9.6 0.00 0.00 0.00 32 1017.9
20260502001508 52 60 2.6 6.1 0.00 0.00 0.00 33 1017.9
20260502001004 53 55 3.5 7.0 0.00 0.00 0.00 33 1017.8
20260502000503 53 124 2.6 7.0 0.00 0.00 0.00 32 1017.9
20260502000006 53 17 0.0 2.6 0.00 0.00 0.00 35 1017.8
20260501235504 52 332 0.9 3.5 0.00 0.00 0.00 35 1017.9
20260501235004 51 25 0.9 3.5 0.00 0.00 0.00 34 1017.8
20260501234509 51 8 0.0 5.2 0.00 0.00 0.00 34 1017.8
20260501234009 51 26 1.7 6.1 0.00 0.00 0.00 32 1017.7
20260501233505 52 115 1.7 8.7 0.00 0.00 0.00 32 1017.7
20260501233012 53 89 0.9 8.7 0.00 0.00 0.00 33 1017.7
20260501232506 52 76 1.7 10.4 0.00 0.00 0.00 33 1017.7
20260501232010 52 43 5.2 10.4 0.00 0.00 0.00 31 1017.7
20260501231520 53 53 3.5 9.6 0.00 0.00 0.00 33 1017.7
20260501231006 53 65 2.6 8.7 0.00 0.00 0.00 32 1017.7
20260501230506 55 317 1.7 8.7 0.00 0.00 0.00 31 1017.7
20260501230004 55 104 0.9 5.2 0.00 0.00 0.00 34 1017.6
20260501225504 54 255 0.9 5.2 0.00 0.00 0.00 33 1017.6
20260501225003 54 144 0.0 6.1 0.00 0.00 0.00 34 1017.6